Location: Newark
(12.4436°N, 0.6167°W)
Time: 16:49:47
(UTC+00:00)

Vanguard 1 - Pass Details

Date: 10 December 2019
Orbit: 651 x 3832 km, 34.2° (Epoch: 20 January)

Event Time Altitude Azimuth Distance (km) Brightness Sun altitude
Rises 07:45:05 0° 295° (WNW) 7,847 14.0 19.4°
Reaches altitude 10° 07:52:01 10° 304° (NW) 6,540 13.7 20.8°
Maximum altitude 08:08:42 32° 1° (N) 3,747 13.0 24.3°
Drops below altitude 10° 08:19:07 10° 62° (ENE) 4,129 13.7 26.4°
Sets 08:22:17 0° 73° (ENE) 4,733 14.1 27.1°
